User: anonymous   Login
Location: Fort Wayne
(41.1310°N, 85.1290°W)
Time: 22:47:55
(UTC-04:00)
Language:

Cosmos 1000 Rocket - Orbit

View from above orbital plane
View from above orbital plane
View from above satellite
View from above satellite

Ground track
Ground track

The orbit data is extracted from the following two-line orbital elements,

1 10777U 78034B   17202.46575021 +.00000116 +00000-0 +10054-3 0  9997
2 10777 082.9411 205.0774 0027615 101.4748 056.0712 13.77390114975109
Epoch (UTC): 21 July 2017 11:10:40
Eccentricity: 0.0027615
inclination: 82.9411°
perigee height: 953 km
apogee height: 993 km
right ascension of ascending node: 205.0774°
argument of perigee: 101.4748°
revolutions per day: 13.77390114
mean anomaly at epoch: 56.0712°
orbit number at epoch: 97510

The dashed part of the orbit path shows where the satellite is in the earth's shadow,  

DLR